Regional Weather Roundup
Issued by NWS Newport/Morehead, NC

Current Version | Previous Version | Text Only | Print | Product List | Glossary Off
Versions: 1 2 3 4 5 6 7 8 9 10 11 12 13 14 15 16 17 18 19 20 21 22 23 24 25 26 27 28 29 30 31 32 33 34 35 36 37 38 39 40 41 42 43 44 45 46 47 48 49 50

000
ASUS42 KMHX 250212
RWRMHX
WEATHER ROUNDUP FOR EASTERN NORTH CAROLINA
NATIONAL WEATHER SERVICE NEWPORT/MOREHEAD CITY NC
1000 PM EDT FRI APR 24 2015

NOTE: "FAIR" INDICATES FEW OR NO CLOUDS BELOW 12,000 FEET
WITH NO SIGNIFICANT WEATHER AND/OR OBSTRUCTIONS TO VISIBILITY

NCZ015>017-031-032-045>047-102-103-250300-
NORTH COAST

CITY           SKY/WX    TMP DP  RH WIND       PRES   REMARKS
EDENTON        PTCLDY    49  38  65 CALM      29.97S
ELIZABETH CITY PTCLDY    54  31  41 SW3       29.96S
KITTY HAWK     CLEAR     48  40  73 SE3       29.97S
MANTEO         CLEAR     48  40  74 SE5       29.99R

$$

NCZ045>047-081-094-103-104-250300-
CENTRAL COAST

CITY           SKY/WX    TMP DP  RH WIND       PRES   REMARKS
FRISCO         CLEAR     50  41  71 SW5       29.99R
SWANQUARTER      N/A     52 N/A N/A W2        29.94S

$$

NCZ095-097-098-100-101-250300-
SOUTHERN COAST

CITY           SKY/WX    TMP DP  RH WIND       PRES   REMARKS
BEAUFORT       PTCLDY    60  46  59 W8        30.00R
CEDAR ISLAND     N/A     59 N/A N/A S3        30.03S
JACKSONVILLE   MOCLDY    56  44  64 SW7       30.00R
PINEY ISLAND   PTCLDY   N/A N/A N/A S7        29.99R
WILMINGTON     CLEAR     59  43  55 SW10      30.01R


$$

NCZ011>013-027>030-043-044-078>080-089-090>093-098-250300-
COASTAL PLAIN

CITY           SKY/WX    TMP DP  RH WIND       PRES   REMARKS
AHOSKIE        CLEAR     45  39  79 CALM      29.97S
CLINTON        MOCLDY    54  47  79 CALM      30.00R
ELIZABETHTOWN  CLEAR     55  44  66 CALM      30.00S
GOLDSBORO      MOCLDY    53  39  60 CALM      29.97R
GREENVILLE     PTCLDY    52  45  76 CALM      30.00S
HAVELOCK       PTCLDY    53  40  61 SW8       30.01R
KENANSVILLE    MOCLDY    49  40  69 CALM      30.00S
KINSTON        NOT AVBL
NEW BERN       PTCLDY    50  41  71 CALM      30.01R
RICHLANDS      MOCLDY    52  41  66 SW5       30.01R
ROCKY MOUNT    CLEAR     51  42  71 CALM      29.98R
WASHINGTON     PTCLDY    51  36  58 CALM      29.98S
WHITEVILLE     PTCLDY    57  43  57 SW5       30.01S

$$

AMZ130-135-150-152-154-156-158-170-250-252-270-ANZ085-086-088-633-658-670-250300-
MARINE OBSERVATIONS

STATION/POSITION TIME  TEMP    WIND        PRES    WAVE   SWELL
                       AIR SEA DIR/SP/G            HT/PER HT/PER
                 (UTC) (F)     (DEG/KT/KT) (MB)    (FT/S) (FT/S)
CHESAPEAKE LIGHT 0200   51     170/ 13/ 14 1015.5
64 E VA BEACH    0150   54 63  360/  4/  6 1014.7    3/ 6   3/ 6
DUCK             0100   51 55  140/ 13/ 14 1013.9
2 E DUCK         0111      54                N/A     3/ 6   2/12
10 NE DUCK       NOT AVBL
OREGON INLET     0100   49 57  120/  4/  6 1015.3
HATTERAS CG      0100   58 66  170/  3/  4 1014.5
DIAMOND BUOY     0150   60 73  220/  4/ 10 1015.6    5/ 9   5/ 9
CAPE LOOKOUT     0200   61     250/  9/ 12 1015.6
BEAUFORT LAB     0100   61 66  250/  6/  9 1014.5
27 SE WRIGHTSVLE 0100   61 70  240/ 14/ 17   N/A
5 SE WRIGHTSVLE  0108   63 65  240/ 16/ 19 1016.1
225 S CAPE HAT   0150   63 70  350/  8/ 12 1017.2    6/ 8   7/ 8
41 SE CHARLESTON 0150   66 71  180/  8/ 10 1017.0    4/ 8   3/ 8

$$



USA.gov is the U.S. government's official web portal to all federal, state and local government web resources and services.